Hourly Data Report for May 29, 2012

All times are specified in Local Standard Time (LST). Add 1 hour to adjust for Daylight Saving Time where and when it is observed.

PENTICTON A
BRITISH COLUMBIA

49°27'45.000" N
119°36'08.000" W
344.40 m
1126146
71889
YYF

Download Data

Hourly Data (May 2012)
Hourly Data Report for May 29, 2012
Temp Definition
°C
Dew Point Temp Definition
°C
Rel Hum Definition
%
Wind Dir Definition
10's deg

Wind Spd Definition
km/h
Visibility Definition
km
Stn Press Definition
kPa
Hmdx Definition


Wind Chill Definition


Weather Definition


TIME
00:00 14.1 2.7 46 0 23 10.0 97.38     LegendNANA
01:00 13.6 2.3 46 1 18 10.0 97.42     Cloudy
02:00 13.2 2.2 47 1 21 10.0 97.47     LegendNANA
03:00 12.9 2.2 48 1 18 10.0 97.47     LegendNANA
04:00 12.5 1.6 47 0 15 10.0 97.48     Cloudy
05:00 11.9 1.3 48   0 10.0 97.51     LegendNANA
06:00 13.3 1.7 45 3 15 10.0 97.57     LegendNANA
07:00 14.3 1.3 41 35 14 10.0 97.58     Mainly Clear
08:00 15.1 1.3 39   0 10.0 97.58     LegendNANA
09:00 16.7 1.3 35 2 12 10.0 97.52     LegendNANA
10:00 17.8 1.4 33 2 10 10.0 97.47     Mainly Clear
11:00 18.4 0.6 30   0 10.0 97.44     LegendNANA
12:00 18.9 0.6 29 2 8 10.0 97.41     LegendNANA
13:00 19.2 0.9 29 17 8 10.0 97.40     Mostly Cloudy
14:00 19.5 1.6 30 17 9 10.0 97.39     LegendNANA
15:00 19.7 0.3 27 19 12 10.0 97.36     LegendNANA
16:00 18.3 3.5 37 18 15 10.0 97.38     Mostly Cloudy
17:00 19.0 2.9 34 18 9 10.0 97.34     LegendNANA
18:00 18.8 1.9 32   0 10.0 97.33     LegendNANA
19:00 17.9 0.2 30 33 18 10.0 97.44     Mostly Cloudy
20:00 16.0 0.2 34 35 18 10.0 97.55     LegendNANA
21:00 13.8 0.9 41 3 13 10.0 97.63     LegendNANA
22:00 12.8 1.2 45 28 5 10.0 97.69     Mostly Cloudy
23:00 11.6 1.0 48 28 8 10.0 97.73     LegendNANA

Notes on Data Quality.

Legend

  • E = Estimated
  • M = Missing
  • NA = Not Available
Date modified: